GFSFLT2_sfc_dewp_135.txt.gz
Dewpoint
30 29 30 30 30 31 32 31 30 33 32 35 35 34 36 36 35 35 36 37 37 38 38 39 40 40 41
28 29 29 30 29 29 29 28 29 29 32 33 32 34 35 35 34 34 35 35 35 36 37 38 39 39 39
28 29 29 28 29 29 28 28 27 30 31 31 32 33 33 33 32 33 32 33 33 35 35 36 37 37 37
27 27 27 29 28 27 26 27 28 26 28 30 31 31 31 31 31 30 31 32 33 34 34 34 35 35 36
26 26 26 26 25 26 26 27 26 27 27 28 28 27 27 29 29 29 30 31 33 33 32 33 34 35 35
27 26 26 26 26 26 26 26 24 27 27 27 29 27 27 27 29 29 30 32 32 31 33 34 33 33 33
27 27 28 28 28 27 27 26 26 28 29 27 27 25 26 24 29 29 30 30 30 32 33 33 32 31 32
26 26 27 28 29 29 30 30 31 30 29 24 23 23 25 25 29 29 29 28 30 31 30 30 30 30 31
31 31 31 32 31 30 26 24 23 21 24 23 23 23 23 23 24 28 27 29 27 28 29 29 29 29 28
28 29 31 31 32 27 26 22 21 21 24 23 22 25 21 22 22 22 22 25 26 27 28 28 28 26 27
32 31 29 26 25 25 24 24 20 21 24 24 23 21 23 21 21 21 21 21 22 23 27 28 28 27 27
30 27 25 25 24 24 25 25 25 25 25 25 12 18 21 21 20 20 20 21 22 23 24 27 28 29 28
28 26 24 24 25 24 25 25 25 25 25 26 24 23 24 22 21 21 20 21 23 23 24 24 23 23 24
24 22 24 23 24 25 25 24 24 23 25 26 25 24 22 22 22 20 21 21 21 22 22 22 23 24 25
24 24 24 24 25 26 25 24 22 21 21 22 23 24 23 22 21 21 20 20 21 21 21 22 23 24 25
24 24 25 24 24 23 23 23 22 21 21 21 19 13 20 21 25 21 21 21 21 21 22 21 21 23 23
25 25 24 24 23 23 21 21 21 20 21 21 19 18 17 15 18 22 20 19 19 20 21 21 20 21 21

GFSFLT2_sfc_dewp_138.txt.gz
Dewpoint
29 29 29 29 30 30 31 31 31 33 32 33 34 33 34 35 35 35 35 36 36 37 39 38 39 39 40
27 29 29 29 29 28 29 28 29 30 32 33 33 32 34 34 33 33 33 34 33 35 36 37 37 38 39
27 28 28 28 28 29 28 27 27 30 30 31 31 32 32 32 32 32 31 31 32 33 34 35 35 36 37
26 26 26 27 28 27 25 27 27 26 28 29 31 31 32 32 31 31 30 31 31 33 34 34 33 33 35
26 26 26 26 25 26 26 26 26 27 26 27 28 29 29 30 29 30 30 31 32 33 33 33 33 34 34
26 26 26 26 26 26 26 24 24 27 27 27 29 28 28 28 30 30 30 30 31 32 31 32 34 34 33
27 27 26 27 27 26 26 26 26 28 29 27 27 26 26 24 29 29 30 30 30 30 31 32 31 31 31
26 27 27 27 27 27 30 32 31 30 30 26 23 22 24 25 29 29 29 29 29 29 29 29 29 30 30
31 32 33 33 32 33 30 26 24 24 25 24 23 23 22 22 24 28 27 28 27 28 28 29 29 30 29
28 29 30 30 32 31 28 24 24 21 24 23 22 24 21 22 22 22 22 26 27 28 28 28 28 26 26
28 28 30 30 29 27 26 26 22 21 24 23 23 22 23 22 21 22 22 22 22 23 26 27 27 27 25
31 31 30 28 27 26 25 24 25 24 25 25 14 18 18 21 19 20 21 22 22 22 22 25 28 28 28
26 28 29 28 26 25 25 25 25 25 25 25 21 22 20 22 20 20 21 21 22 22 22 23 24 24 23
28 27 26 23 24 24 23 24 23 23 25 26 25 24 23 23 22 21 21 20 21 21 22 22 22 23 22
26 25 23 24 25 25 26 23 22 21 20 21 23 24 24 22 21 21 20 20 21 22 21 21 22 22 22
25 24 23 23 23 24 22 21 21 20 20 20 19 13 19 22 25 21 21 21 22 22 22 21 20 21 22
24 21 22 24 24 23 21 20 20 20 19 19 18 20 17 14 18 22 20 20 20 20 21 20 20 21 21

GFSFLT2_sfc_dewp_141.txt.gz
Dewpoint
29 29 28 29 29 29 30 30 30 34 33 33 35 35 34 35 36 35 36 35 37 37 37 38 37 38 38
26 27 28 29 28 27 29 28 28 30 32 33 33 33 33 34 33 34 34 34 34 34 35 36 37 37 37
26 28 28 28 27 28 28 27 27 30 31 31 31 32 34 34 33 33 33 33 32 33 34 35 36 36 36
26 26 26 27 27 27 26 26 27 27 29 30 31 31 32 33 32 31 31 31 32 33 33 35 34 34 35
25 26 26 26 25 26 26 26 26 27 26 26 27 28 29 32 30 29 30 32 31 32 33 34 33 33 35
26 26 26 25 26 26 27 25 24 27 26 27 28 28 28 28 30 30 31 31 31 31 32 32 33 33 33
27 27 26 27 27 26 26 26 26 27 28 28 28 27 28 26 28 29 30 30 31 31 31 31 31 31 32
28 28 28 28 27 26 27 28 30 31 29 26 26 24 24 25 29 29 29 30 30 29 28 29 30 30 31
32 32 32 32 33 33 31 31 28 26 27 25 23 23 24 23 23 27 27 28 28 28 29 29 30 30 28
27 29 31 31 33 30 30 29 28 25 25 23 23 23 21 23 22 22 22 25 26 28 28 29 29 26 25
27 28 28 29 28 30 31 30 27 25 25 23 20 24 25 23 22 22 22 22 22 23 27 27 28 27 25
29 29 29 31 31 29 29 27 27 25 25 25 19 21 15 20 20 20 21 21 22 22 23 25 27 28 29
30 30 30 30 29 27 26 25 26 26 26 26 22 22 19 21 20 21 21 22 22 22 22 22 22 23 23
29 28 29 27 26 26 23 23 23 24 25 26 25 24 23 22 22 21 22 21 21 22 22 22 23 23 23
29 28 26 26 25 25 24 25 23 21 21 21 23 24 24 23 21 20 20 21 22 22 22 22 22 22 22
28 26 26 25 24 23 23 23 22 21 19 19 13 12 21 22 25 21 21 21 21 22 22 21 21 22 22
27 26 25 22 24 23 24 22 20 20 19 19 8 15 16 14 18 22 21 20 20 21 21 21 21 21 21

GFSFLT2_sfc_dewp_147.txt.gz
Dewpoint
28 29 29 29 28 30 31 29 28 33 33 33 35 35 36 36 36 37 36 37 37 37 37 37 38 38 37
26 29 29 29 29 29 27 25 27 30 33 34 34 35 35 35 35 36 35 35 35 36 36 36 37 37 37
27 28 28 29 29 29 28 28 27 30 33 34 34 34 34 34 35 35 35 35 35 35 35 35 35 35 37
27 27 27 27 28 26 25 28 27 26 29 31 32 33 34 34 33 33 33 33 33 33 33 34 34 35 36
27 26 25 25 25 25 26 27 28 29 28 27 28 28 29 33 32 33 32 32 32 32 34 33 33 34 35
26 24 24 25 25 26 27 28 26 29 27 26 28 27 28 29 32 33 33 33 32 33 33 33 33 33 33
24 25 26 28 27 28 29 29 28 27 27 26 28 28 29 28 33 32 32 32 31 32 32 33 33 33 32
30 30 31 31 31 31 31 30 29 28 28 27 28 27 28 28 31 31 31 31 31 31 32 32 32 31 30
37 37 38 38 34 31 30 28 26 26 30 30 27 26 25 25 24 28 28 29 30 31 29 29 30 30 31
32 34 37 37 36 33 30 28 28 28 28 29 27 26 23 23 23 22 22 25 27 29 29 29 30 28 27
31 32 34 34 32 33 33 33 31 30 29 30 27 25 25 24 23 23 23 22 22 23 26 28 28 28 26
32 30 30 29 31 31 32 34 34 33 32 32 30 28 26 25 22 22 22 22 22 22 23 25 27 28 29
31 30 30 31 32 32 33 33 34 34 33 33 31 30 28 25 24 23 22 23 24 24 24 24 24 24 24
32 31 31 32 31 32 32 31 30 30 29 30 30 28 26 26 25 24 23 23 23 24 24 24 24 24 24
32 30 29 30 31 32 31 30 28 27 26 27 28 27 27 27 24 23 22 22 23 24 23 23 24 24 24
32 31 31 30 30 30 30 28 27 26 26 26 25 24 23 23 26 22 22 22 23 24 23 23 22 24 23
32 32 32 31 30 29 27 27 26 25 26 25 24 22 20 17 19 23 23 24 23 23 23 24 24 25 24